Location: Abby Bend
(32.3532°N, 97.6973°W)
Time: 03:48:59
(UTC+00:00)

Daily predictions for brighter satellites

Satellite Brightness Start Highest point End
(mag) Time Altitude Azimuth Time Altitude Azimuth Time Altitude Azimuth
Cosmos 2233 Rocket 4.2 01:41:11 10° N 01:47:31 86° W 01:53:50 10° S
Resurs 01 Rocket 2.9 01:46:59 10° SE 01:50:33 25° ENE 01:54:08 10° NNE
Cosmos 1602 4.1 01:50:58 10° NNW 01:54:30 63° W 01:58:02 10° S
Cosmos 2237 Rocket 3.5 01:50:39 10° SW 01:56:06 46° WNW 02:01:34 10° N
SL-24 R/B - RUBIN 2 4.4 01:51:01 10° SSW 01:56:49 83° ESE 02:03:17 10° NNE
Cosmos 1782 2.9 01:56:12 10° S 01:59:52 51° E 02:03:35 10° NNE
BREEZE-M DEB (TANK) 4.1 01:57:59 10° W 02:00:50 40° NNW 02:05:14 10° NE
OAO 2 Rocket 3.7 01:59:42 10° WNW 02:05:00 71° N 02:10:14 10° E
Meteor 2-14 Rocket 4.4 01:58:55 10° S 02:05:02 78° E 02:11:11 10° N
H-2A R/B 0.5 02:03:39 10° SW 02:05:33 26° S 02:06:29 15° ESE
Okean O Rocket 2.6 02:02:15 10° SE 02:06:07 30° ENE 02:09:59 10° N
Cosmos-2242 2.9 02:02:58 10° S 02:07:08 79° E 02:11:22 10° N
USA 290 4.4 02:11:14 10° NNE 02:12:56 14° ENE 02:14:20 11° E
Aureole 2 3.9 02:13:37 10° NNW 02:16:29 71° ENE 02:19:09 12° SSE
Feng Yun 1-1 Rocket 4.5 02:14:01 10° SSE 02:19:49 66° ENE 02:25:42 10° N
Resurs 1-3 4.5 02:15:55 10° S 02:20:07 50° W 02:24:20 10° NNW
Cosmos 972 4.4 02:17:51 10° SSW 02:22:47 82° WNW 02:27:41 10° NNE
DELTA 2 DEB (DPAF) 4.0 02:19:20 10° NNE 02:23:35 88° ESE 02:27:47 10° SSW
SL-8 R/B 4.2 02:21:08 10° WSW 02:25:49 63° NW 02:30:31 10° NE
Cosmos 1943 Rocket 2.2 02:20:58 10° NNW 02:26:38 77° ENE 02:31:46 12° SSE
SPOT 1/Viking Rocket 4.0 02:22:48 10° S 02:27:54 63° W 02:33:01 10° NNW
FALCON 9 R/B 2.6 02:33:01 10° W 02:36:55 73° N 02:49:02 10° E
Cosmos 192 4.4 02:32:26 10° NNW 02:37:22 80° WSW 02:41:49 13° S
Cosmos 2221 2.9 02:36:34 17° SSE 02:39:35 42° E 02:43:40 10° NNE
CZ-4B R/B 3.5 02:36:14 10° S 02:41:34 67° WSW 02:46:52 10° NNW
ATLAS 3B R/B 3.4 02:36:21 10° NNW 02:43:57 50° NE 02:48:59 21° ESE
USA 186 3.2 02:42:51 10° SSW 02:45:43 34° W 02:48:40 10° NNW
Okean-O 3.1 02:43:48 24° SE 02:45:59 43° ENE 02:50:09 10° N
Centaur D AC-29 2.6 02:42:30 10° SW 02:46:22 38° SSE 02:57:17 10° E
Cosmos 2278 Rocket 3.5 02:41:31 10° NW 02:46:41 37° WSW 02:51:49 10° S
Cosmos 1464 Rocket 4.0 02:41:15 10° N 02:47:32 87° E 02:53:29 11° S
MOS 1-B 4.5 02:42:30 10° S 02:48:16 75° WSW 02:54:03 10° NNW
ATLAS 5 CENTAUR R/B 4.1 02:43:38 10° WNW 02:48:26 27° WSW 02:53:58 10° SSW
CZ-4C R/B 3.2 02:46:04 10° NNE 02:49:55 68° ESE 02:53:10 15° S
CARTOSAT-1 3.8 02:46:38 13° S 02:50:20 68° WSW 02:54:35 10° NNW
Meteor 1-26 Rocket 4.4 02:50:42 10° S 02:56:43 84° W 03:02:47 10° N
Cosmos 921 Rocket 2.9 02:53:31 10° S 02:57:58 81° ESE 03:02:27 10° NNE
Cosmos 1371 Rocket 4.5 02:55:29 10° N 03:00:37 46° ENE 03:02:41 31° ESE
OAO 3 Copernicus 4.2 02:55:34 10° WNW 03:00:37 83° SSW 03:02:55 33° ESE
Lacrosse 5 2.1 02:58:33 10° NNW 03:03:36 59° NE 03:05:39 34° ESE
Cosmos 1378 4.3 03:00:41 10° SSW 03:03:43 35° W 03:06:46 10° NNW
MOS 1 4.3 03:01:42 28° SSE 03:04:45 64° ENE 03:10:21 10° N
Cosmos 1420 Rocket 4.0 03:03:46 10° N 03:09:04 69° ENE 03:11:13 36° SE
OAO 1 4.4 03:04:44 10° WSW 03:10:10 69° SSE 03:13:34 23° E
Terra 2.9 03:11:35 26° E 03:12:06 27° ENE 03:16:01 10° NNE
SL-16 R/B 3.9 03:10:38 10° SW 03:15:43 34° WNW 03:20:50 10° N
Cosmos 1603 4.1 03:17:42 39° ESE 03:18:22 40° ESE 03:23:38 10° NE
IRS-1A Rocket 4.5 03:16:28 37° SE 03:18:24 55° ENE 03:23:50 10° N
USA 308 4.1 03:16:49 10° WNW 03:19:12 21° SW 03:19:18 21° SW
Cosmos 1743 3.1 03:16:07 10° N 03:19:07 42° NE 03:19:07 42° NE
Meteor 2-6 Rocket 4.1 03:16:48 26° S 03:20:06 76° E 03:25:38 10° NNE
Spot 2 Rocket 4.4 03:20:07 30° E 03:20:40 30° ENE 03:25:02 10° N
Cosmos 1634 Rocket 4.2 03:15:24 10° N 03:21:30 53° E 03:23:26 39° SE
GEOS 3 Rocket 3.4 03:16:29 10° NE 03:21:36 66° ESE 03:26:04 13° SSW
SPOT 5 2.7 03:21:11 49° SE 03:22:20 72° ENE 03:26:50 10° N
SeaSat 1 4.5 03:20:41 10° SSW 03:24:23 21° WSW 03:28:06 10° WNW
Resurs 01 Rocket 3.7 03:23:21 10° SSW 03:26:51 23° W 03:30:22 10° NW
NOSS 3-1 (A) 4.3 03:22:23 10° NNW 03:30:26 79° WSW 03:35:18 32° SSE
Gbstr 26 Del rocket 4.5 03:26:11 10° WNW 03:31:21 34° SW 03:32:46 29° SSW
Cosmos 2369 Rocket 2.4 03:28:05 10° N 03:33:32 52° ENE 03:34:31 46° E
Cosmos 2034 Rocket 4.5 03:27:28 10° NNW 03:33:33 57° W 03:37:42 21° SSW
Cosmos 1726 4.3 03:36:07 10° NNE 03:36:42 14° NNE 03:36:42 14° NNE
Okean 3 Rocket 4.0 03:36:12 10° N 03:39:52 46° NE 03:39:52 46° NE
Cosmos 1842 Rocket 3.4 03:40:11 77° SSW 03:40:31 88° W 03:44:57 10° N
Okean O Rocket 4.0 03:39:17 10° SW 03:42:21 18° W 03:45:26 10° NW
Ariane Rocket 3.2 03:43:07 50° E 03:43:16 50° ENE 03:48:10 10° N
USA 32 4.5 03:42:11 29° SSW 03:44:44 57° W 03:49:53 10° N
BREEZE-M DEB (TANK) 4.4 03:18:54 10° SW 03:45:03 88° NW 03:50:04 10° NE
USA 229 DEB 4.4 03:38:25 10° NNW 03:45:54 54° NE 03:48:32 40° ESE
USA 229 4.4 03:38:31 10° NNW 03:46:01 53° ENE 03:48:38 39° ESE
ARGOS Delta rocket 3.8 03:46:25 70° SSE 03:46:59 83° E 03:51:57 10° N
OAO 2 Rocket 3.5 03:44:34 10° W 03:49:36 58° SSW 03:49:36 58° SSW
Cosmos 1656 Rocket 3.5 03:45:01 10° NNW 03:50:30 81° WSW 03:51:20 64° S
Meteor 1-27 Rocket 4.1 03:51:15 44° ENE 03:51:15 44° ENE 03:55:50 10° NNE
Cosmos 468 4.5 03:54:01 56° SSW 03:55:06 79° WNW 04:00:19 10° NNE
Cosmos 1943 3.8 03:49:54 10° SW 03:55:27 54° WNW 04:01:00 10° N
Cosmos 2056 Rocket 4.2 03:51:26 10° NNW 03:56:34 48° WSW 03:57:41 42° SW
Aureole 3 Rocket 4.4 03:53:41 10° NNW 03:58:03 44° W 04:00:10 31° SW
Cosmos 1452 Rocket 4.1 03:55:33 10° N 04:00:07 43° NE 04:00:07 43° NE
Cosmos 2142 Rocket 4.5 03:56:48 10° N 04:03:07 66° E 04:03:39 64° ESE
Cosmos 44 4.1 04:04:11 10° NW 04:08:06 39° W 04:08:06 39° W
ERS-1 Rocket 3.5 04:15:22 50° WSW 04:15:29 50° W 04:20:22 10° NNW
USA 59 Rocket 2.7 04:29:23 10° NNE 04:30:55 13° NE 04:30:55 13° NE
MOS 1 Rocket 4.1 04:34:16 52° WNW 04:34:16 52° WNW 04:38:38 10° NNW
ATLAS 3B R/B 4.1 04:27:45 10° NW 04:34:22 31° WSW 04:36:15 28° SW
USA 281 3.1 04:36:16 79° ENE 04:36:20 79° ENE 04:42:56 10° NNW
Lacrosse 5 4.2 04:42:59 10° W 04:44:52 15° W 04:44:52 15° W
Terra 3.7 04:50:17 23° W 04:50:17 23° W 04:53:21 10° NW
Meteor 1-11 Rocket 4.4 04:47:52 10° NNW 04:52:46 50° WNW 04:52:46 50° WNW
Nadezhda 4 Rocket 4.4 04:54:10 56° W 04:54:10 56° W 05:00:14 10° N
Chandra Rocket (1) 3.9 04:51:30 10° W 05:08:13 62° SW 05:08:13 62° SW
CZ-3 Stage 3 3.8 04:42:03 10° WSW 05:15:35 67° S 05:16:07 66° SSE
Cosmos 2369 Rocket 4.4 05:13:41 10° WNW 05:16:18 16° W 05:16:18 16° W
USA 267 3.7 05:47:05 10° NE 05:52:17 57° NNE 05:52:17 57° NNE
Cosmos 1697 Rocket 4.3 06:07:33 10° N 06:10:50 29° NNE 06:10:50 29° NNE
Cosmos 1980 Rocket 4.3 06:15:37 10° NNE 06:19:10 19° NE 06:19:10 19° NE
USA 59 Rocket 2.8 06:16:28 10° NW 06:17:27 17° NW 06:17:27 17° NW
Cosmos 2082 Rocket 3.6 06:54:16 35° NNE 06:54:16 35° NNE 06:57:28 10° NNE
Resurs 1-4 Rocket 4.3 07:18:02 10° NE 07:20:14 17° ENE 07:20:14 17° ENE
Cosmos 1745 Rocket 4.4 07:47:13 59° NE 07:47:13 59° NE 07:52:29 10° NNE
NOSS 3-4 (A) 4.0 07:49:58 10° NNW 07:56:33 70° WNW 07:56:33 70° WNW
NOSS 3-4 (C) 3.9 07:50:05 10° NNW 07:56:43 72° WNW 07:56:43 72° WNW
NPP 4.5 07:52:28 10° NNE 07:56:33 46° NE 07:56:33 46° NE
ATLAS CENTAUR R/B 3.9 07:47:34 10° NW 07:59:39 66° WSW 07:59:39 66° WSW
Cosmos 1980 Rocket 3.8 07:58:22 10° NNW 08:00:53 26° NW 08:00:53 26° NW
SJ 16-02 3.4 08:06:53 24° ENE 08:06:53 24° ENE 08:09:03 10° NE
USA 234 3.3 08:05:25 53° ESE 08:07:03 75° NE 08:13:36 10° NW
ADEOS II 3.4 08:03:26 10° NE 08:07:43 32° E 08:07:43 32° E
IDEFIX/ARIANE 42P 3.1 08:07:22 10° NNE 08:11:29 56° NNE 08:11:29 56° NNE
Nadezhda 1 Rocket 4.0 08:10:33 10° N 08:16:37 81° NNW 08:16:37 81° NNW
CZ-2C R/B 3.4 08:26:34 10° NNE 08:32:20 67° E 08:32:29 66° ESE
SL-16 R/B 2.5 08:29:13 10° NNW 08:34:49 61° ENE 08:36:03 49° ESE
Cosmos 968 Rocket 3.9 08:41:59 51° NNW 08:41:59 51° NNW 08:46:12 10° N
AQUA 4.2 08:39:28 10° NNE 08:43:54 57° E 08:43:54 57° E
CZ-2D R/B 2.3 08:42:41 10° N 08:47:51 63° WNW 08:47:51 63° WNW
CRYOSAT 2 4.4 08:43:14 10° N 08:47:46 76° NNE 08:47:46 76° NNE
Cosmos 1709 Rocket 4.2 08:48:17 54° W 08:48:20 54° W 08:54:33 10° N
BREEZE-M R/B 4.2 08:47:03 38° WNW 08:48:35 49° NNW 09:00:44 10° NE
SL-16 R/B 3.4 08:46:58 13° SE 08:52:18 47° ENE 08:58:16 10° N
Meteor 1-24 Rocket 3.9 08:51:31 59° SSE 08:52:39 76° E 08:58:40 10° NNE
OAO 3 Rocket 3.4 08:54:36 64° NNW 08:54:57 66° N 08:59:49 10° E
Cosmos 2237 4.0 08:49:31 10° NNW 08:55:15 76° WSW 08:55:27 75° SW
Cosmos 2360 Rocket 3.3 08:51:05 10° N 08:56:27 42° ENE 09:01:47 10° SE
Cosmos 841 Rocket 4.4 08:52:48 10° NNW 08:56:15 36° WNW 08:56:15 36° WNW
Resurs 1-4 Rocket 2.7 08:56:34 10° N 09:01:18 42° WNW 09:01:18 42° WNW
Cosmos 2181 Rocket 4.3 08:55:15 10° N 09:01:33 65° E 09:04:59 27° SSE
Cosmos 1066 4.5 09:04:45 68° SSW 09:05:29 82° W 09:10:58 10° N
SL-4 R/B 2.4 09:06:31 62° NNW 09:06:31 62° NNW 09:10:34 10° NE
Tiangong 0.0 09:08:06 26° ENE 09:08:06 26° ENE 09:09:35 10° ENE
FENGYUN 3A 3.6 09:07:38 10° N 09:12:55 61° WNW 09:13:35 56° WSW
CZ-2C R/B 2.7 09:15:09 50° W 09:15:09 50° W 09:19:57 10° NNW
IRAS Rocket 4.1 09:10:49 10° NNE 09:16:19 90° ESE 09:17:50 50° SSW
Cosmos 2278 4.4 09:11:31 10° NW 09:15:52 37° W 09:15:52 37° W
Cosmos 2098 Rocket 3.8 09:12:29 10° N 09:18:06 89° W 09:21:18 31° S
SL-8 R/B 3.7 09:15:10 10° NW 09:19:57 82° NE 09:24:44 10° SE
Cosmos 1674 Rocket 3.6 09:20:36 59° SSE 09:21:23 79° E 09:25:49 10° N
SL-24 R/B 4.4 09:21:52 58° WSW 09:22:21 61° W 09:27:07 10° NNW
Lacrosse 5 rocket 1.3 09:20:35 10° NNW 09:24:32 70° NE 09:28:17 10° SE
Cosmos 1814 Rocket 3.9 09:21:36 10° NNW 09:26:51 83° WSW 09:29:48 27° S
Okean 2 Rocket 3.8 09:22:47 10° N 09:27:04 51° E 09:30:06 18° SSE
Cosmos 2333 Rocket 2.3 09:24:45 10° NNW 09:30:30 77° ENE 09:36:14 10° SSE
Cosmos 1295 Rocket 4.4 09:30:42 32° S 09:33:46 85° W 09:39:54 10° N
Cosmos 405 Rocket 3.7 09:30:41 10° N 09:34:07 41° E 09:36:44 16° SE
Cosmos 2322 Rocket 2.1 09:28:36 10° NNW 09:34:12 65° WSW 09:37:44 23° S
Meteor 2-5 Rocket 4.3 09:32:53 38° WSW 09:34:16 44° WNW 09:39:56 10° N
Cosmos 2297 Rocket 4.2 09:31:06 10° SSE 09:35:25 23° E 09:39:43 10° NE
ATLAS CENTAUR R/B 1.5 09:36:07 45° SE 09:36:33 48° ESE 09:39:56 10° NE
Cosmos 1378 Rocket 3.7 09:38:01 48° WSW 09:38:25 50° W 09:42:35 10° N
Cosmos 1486 Rocket 4.2 09:36:16 29° S 09:38:53 68° ESE 09:44:03 10° NNE
ALOS 2.7 09:38:24 10° N 09:42:48 45° WNW 09:43:48 39° WSW
SJ 16-02 3.3 09:43:39 15° WNW 09:43:39 15° WNW 09:46:09 10° NNW
ADEOS II 3.3 09:43:17 10° NNW 09:47:28 25° WNW 09:48:35 23° W
Cosmos 2074 Rocket 4.2 09:47:33 30° SW 09:50:22 51° W 09:56:25 10° N
Meteor 1-28 Rocket 4.3 09:51:23 26° WNW 09:51:23 26° WNW 09:53:40 10° NW
Okean 1 Rocket 3.4 09:48:36 10° N 09:52:53 62° E 09:57:08 10° SSE
UNK 3.6 09:51:37 19° S 09:54:55 68° WSW 09:59:33 10° NNW
COSMOS 2455 4.0 09:50:49 10° S 09:56:17 38° ESE 10:01:47 10° NE
METEOR-M 4.1 09:53:08 10° N 09:58:28 78° WNW 10:02:09 21° SSW
CZ-2C R/B 2.4 09:54:36 10° NNE 09:59:18 72° ESE 10:02:58 16° S
IRS-1D 4.0 09:57:11 10° NNE 10:02:28 64° ESE 10:07:39 10° S
Envisat 3.0 09:58:09 10° N 10:03:12 68° WNW 10:06:34 21° SSW
CZ-4C R/B 3.7 10:05:24 10° SSE 10:08:29 21° ESE 10:11:54 10° ENE
Delta 2 Rocket 4.2 10:08:34 22° WSW 10:12:09 47° S 10:17:54 10° ESE
RESURS DK-1 2.5 10:08:54 10° NW 10:12:49 48° WSW 10:16:43 10° S
Atlas Centaur 2 2.4 10:14:56 20° SSW 10:16:34 27° SSE 10:19:41 10° ESE
SL-16 R/B 3.9 10:15:32 10° WNW 10:17:48 14° W 10:17:48 14° W
Cosmos 2322 4.2 10:15:15 10° NNW 10:20:54 64° ENE 10:26:30 10° SSE
Cosmos 1825 3.4 10:20:53 19° W 10:21:31 20° WNW 10:24:07 10° NNW
Cosmos 1975 Rocket 3.2 10:18:22 10° S 10:22:38 73° E 10:26:55 10° N
Nadezhda 3 Rocket 4.2 10:20:38 10° NNW 10:26:47 55° W 10:32:53 10° SSW
Cosmos 1892 4.4 10:29:09 13° W 10:29:48 14° WNW 10:31:41 10° NW
Thor Agena Rocket 3.6 10:25:20 10° N 10:30:32 69° WNW 10:35:45 10° SSW
Cosmos 2219 Rocket 2.3 10:25:49 10° NNW 10:31:19 55° WSW 10:36:50 10° S
YAOGAN 6 2.9 10:29:17 10° N 10:32:22 39° WNW 10:34:44 15° SW
SL-24 DEB 4.3 10:29:05 10° N 10:33:31 57° W 10:37:56 10° SSW
SL-16 R/B 3.7 10:32:02 13° SW 10:36:00 22° W 10:40:43 10° NW
Cosmos 2341 Rocket 4.0 10:30:16 10° S 10:36:32 77° W 10:42:47 10° N
OAO 3 Rocket 3.2 10:33:30 10° WNW 10:38:21 64° SSW 10:43:09 10° ESE
Cosmos 2360 Rocket 3.4 10:35:58 10° NW 10:40:03 21° W 10:44:06 10° SSW
DELTA 2 R/B (1) 3.6 10:35:01 10° WNW 10:40:36 89° SSW 10:46:09 10° ESE
COSMOS 2428 2.9 10:35:36 10° NNW 10:41:17 77° ENE 10:46:58 10° SSE
Cosmos 2366 rocket 4.1 10:36:30 10° S 10:42:51 86° W 10:49:14 10° N
Tiangong 0.0 10:40:58 10° WNW 10:43:21 20° NNW 10:45:45 10° NE
ATLAS 2AS CENTAUR R/B 2.6 10:38:44 10° NNW 10:45:26 75° WSW 10:51:58 10° SSE
Cosmos 1025 Rocket 4.2 10:42:30 11° SW 10:45:53 26° WNW 10:49:35 10° NNW
Geosat 4.2 10:41:27 10° S 10:46:16 50° WSW 10:51:09 10° NW
ASTEX 1 3.8 10:42:30 10° SSW 10:47:08 41° W 10:51:47 10° NNW
H-2A R/B 2.3 10:45:15 10° NNE 10:50:42 80° ESE 10:56:06 10° S
In-Cosmos 22 Rocket 4.2 10:46:25 10° SSW 10:51:47 66° W 10:57:20 10° N
Cosmos 1455 Rocket 3.1 10:49:39 10° NNW 10:53:59 62° W 10:58:18 10° S
Cosmos 2237 Rocket 4.1 10:49:35 10° N 10:54:47 36° ENE 10:59:56 10° SE
H-2A R/B 4.4 10:52:34 10° NE 10:55:22 28° E 10:58:10 10° SSE
Cosmos 371 Rocket 4.5 10:51:42 10° WSW 10:55:40 26° WNW 10:59:39 10° N
Cosmos 2227 Rocket 2.7 10:50:06 10° S 10:55:41 63° ESE 11:01:16 10° NNE
DNEPR-1 R/B 4.5 10:55:00 10° NNW 11:01:16 75° ENE 11:06:16 10° SSE
Cosmos 1606 3.8 11:01:13 10° N 11:04:36 45° E 11:08:00 10° SSE
